Home > Weather > Jacksonville > Past weeks

Flag for USA Past Weather in Jacksonville, Florida, USA — Yesterday and Last 2 Weeks

Now
91 °F

Broken clouds.


Feels Like: 95 °F
Forecast: 74 / 92 °F
Wind: 7 mph from Northeast

Location: Jacksonville Naval Air Station

Current Time: Jun 28, 2016 at 6:38:48 PM

Latest Report: Jun 28, 2016 at 4:53 PM


Visibility: 10 mi

Pressure: 29.91 "Hg

Humidity: 47%

Dew Point: 68 °F

Location of JacksonvilleLocation

Past Weather in Jacksonville — Graph

°F

Jacksonville Temperature Yesterday

Maximum temperature yesterday: 92 °F (at 1:53 PM)
Minimum temperature yesterday: 79 °F (at 6:53 AM)
Average temperature yesterday: 85 °F

High & Low Weather Summary for the Past Weeks

 TemperatureHumidityPressure
High99 °F (Jun 14, 3:53 PM)91% (Jun 18, 5:53 PM)30.25 "Hg (Jun 18, 5:53 PM)
Low70 °F (Jun 21, 6:53 AM)26% (Jun 22, 2:53 PM)29.78 "Hg (Jun 17, 5:53 PM)
Average84 °F61%30.04 "Hg
* Reported Jun 13 4:53 PM — Jun 28 4:53 PM, Jacksonville, Weather by CustomWeather, © 2016

Note: Actual official high and low records may vary slightly from our data, if they occured in-between our weather recording intervals... More about our weather records

Advertising

Jacksonville Weather History for the Previous 24 Hours

Scroll right to see more
 ConditionsComfort  
Time TempWeatherWind HumidityBarometerVisibility
4:53 PM
Tue, Jun 28
91 °FBroken clouds.7 mph47%29.91 "Hg10 mi
4:33 PM89 °FBroken clouds.10 mph50%29.93 "Hg10 mi
3:53 PM94 °FThunderstorms. Broken clouds.10 mph43%29.91 "Hg10 mi
3:39 PM93 °FThunderstorms. Broken clouds.7 mph42%29.93 "Hg10 mi
2:53 PM91 °FThunderstorms. Broken clouds.9 mph47%29.93 "Hg7 mi
1:53 PM93 °FPartly sunny.7 mph47%29.96 "Hg10 mi
12:53 PM90 °FPartly sunny.7 mph57%29.98 "Hg10 mi
11:53 AM91 °FPartly sunny.3 mph54%30.00 "Hg10 mi
10:53 AM88 °FPartly sunny.No wind59%30.00 "Hg10 mi
9:53 AM85 °FPartly sunny.5 mph65%30.00 "Hg10 mi
8:53 AM82 °FPartly sunny.9 mph67%30.00 "Hg10 mi
7:53 AM79 °FPartly sunny.8 mph74%29.99 "Hg10 mi
6:53 AM78 °FPassing clouds.7 mph76%29.98 "Hg10 mi
5:53 AM77 °FPartly cloudy.6 mph79%29.97 "Hg10 mi
4:53 AM78 °FPassing clouds.5 mph79%29.96 "Hg10 mi
3:53 AM79 °FPassing clouds.3 mph74%29.96 "Hg10 mi
1:53 AM81 °FPassing clouds.No wind69%29.99 "Hg10 mi
12:53 AM81 °FPassing clouds.3 mph69%30.01 "Hg10 mi
11:53 PM
Mon, Jun 27
82 °FPassing clouds.3 mph67%30.03 "Hg10 mi
10:53 PM83 °FPassing clouds.8 mph63%30.02 "Hg10 mi
9:53 PM84 °FPassing clouds.8 mph59%30.00 "Hg10 mi
8:53 PM85 °FScattered clouds.8 mph55%29.98 "Hg10 mi
7:53 PM87 °FPartly sunny.7 mph51%29.97 "Hg10 mi
6:53 PM89 °FBroken clouds.9 mph52%29.96 "Hg10 mi
Weather by CustomWeather, © 2016

See weather overviewHow to use our weather pages